Powrót do katalogu

STARLINK-35187

AktywnyŁącznośćSSO
NORAD 65521·PAYLOAD·🇺🇸 United States

Wystrzelony Sep 6, 2025 z Cape Canaveral Space Force Station

Loading…

Następne Przeloty (najbliższe 24 godziny)

TLE

ŚwieżeSource: CelesTrak SupGP

Epoka: Sep 14, 2026, 15:45 UTC

1 65521C 25200B   26257.65673611  .00007339  00000+0  22782-3 0  2577
2 65521  97.2846 324.0956 0001133  95.7823 264.0254 15.33436358    13

Śledź STARLINK-35187 w czasie rzeczywistym z AllMySat

Download on the App Store